Regional Weather Roundup
Issued by NWS

Home | Current Version | Previous Version | Text Only | Print | Product List | Glossary On
Versions: 1 2 3 4 5 6 7 8 9 10 11 12 13 14 15 16 17 18 19 20 21 22 23 24 25 26 27 28 29 30 31 32 33 34 35 36 37 38 39 40 41 42 43 44 45 46 47 48 49 50
000
ASUS44 KBMX 012210
RWRAL

ALABAMA REGIONAL WEATHER ROUNDUP
NATIONAL WEATHER SERVICE BIRMINGHAM AL
500 PM CDT SAT AUG 01 2015

NOTE: "FAIR" INDICATES FEW OR NO CLOUDS BELOW 12,000 FEET
WITH NO SIGNIFICANT WEATHER AND/OR OBSTRUCTIONS TO VISIBILITY.

THE REMARK "TC" DENOTES TEMPERATURE IN DEGREES CELSIUS.

ALZ001>011-014-016>018-020-012300-
NORTH ALABAMA

CITY           SKY/WX    TMP DP  RH WIND       PRES   REMARKS
MUSCLE SHOALS  SUNNY     92  60  34 E8        29.96F HX  91
HUNTSVILLE     MOSUNNY   94  59  31 N10       29.95F HX  93
DECATUR        SUNNY     91  62  37 NE8       29.95F HX  91
HALEYVILLE     FAIR      91  61  36 N6        29.99F HX  91
GADSDEN        SUNNY     93  54  26 E10G17    29.90F HX  91
$$

ALZ012-013-022-023-030>036-040>044-012300-
WEST CENTRAL ALABAMA

CITY           SKY/WX    TMP DP  RH WIND       PRES   REMARKS
TUSCALOOSA     SUNNY     95  54  25 NE15      29.89F HX  93
$$

ALZ015-024>027-033>036-040>044-012300-
CENTRAL ALABAMA

CITY           SKY/WX    TMP DP  RH WIND       PRES   REMARKS
BIRMINGHAM     MOSUNNY   94  56  27 N14       29.92F HX  92
MONTGOMERY     SUNNY     95  71  45 N10       29.86S HX 102
SHELBY CO ARPT SUNNY     93  61  34 N9        29.90F HX  93
MAXWELL AFB    SUNNY     95  71  46 N9        29.85F HX 102
GREENVILLE     FAIR      94  66  39 N9        29.86S HX  97
$$

ALZ019-021-028-029-037-038-045>048-012300-
EAST CENTRAL ALABAMA

CITY           SKY/WX    TMP DP  RH WIND       PRES   REMARKS
ANNISTON       MOSUNNY   94  59  31 NE9       29.90F HX  93
ALEXANDER CITY SUNNY     92  65  40 NE8       29.91S HX  94
AUBURN         SUNNY     91  73  55 NE14      29.91S HX 100
$$

ALZ051>064-012300-
SOUTHWEST ALABAMA

CITY           SKY/WX    TMP DP  RH WIND       PRES   REMARKS
MOBILE         MOSUNNY   92  67  43 N8        29.86F HX  95
BROOKLEY FIELD MOSUNNY   94  70  45 N8        29.85F HX 100
EVERGREEN      MOSUNNY   96  67  38 NW7       29.85S HX 100
$$

ALZ049-050-065>069-012300-
SOUTHEAST ALABAMA

CITY           SKY/WX    TMP DP  RH WIND       PRES   REMARKS
DOTHAN         SUNNY     93  72  50 VRB5      29.87F HX 101
OZARK          SUNNY     91  75  58 E6        29.84S HX 102
TROY           PTSUNNY   91  77  63 SW6       29.86S HX 104
EUFAULA        PTSUNNY   87  79  76 CALM      29.84S HX 101
$$


USA.gov is the U.S. government's official web portal to all federal, state and local government web resources and services.